7L2IWN-13 Weather Reports


time (UTC)temp
F
wind
direction
speed
knots
gust
knots
rain 1hr
in
rain 24hr
in
rain mn
in
humidity
%
barometer
mb
20260508080405 73 315 0.9 0.9 0.00 0.00 0.00 79 1000.6
20260508075203 74 306 0.0 0.0 0.00 0.00 0.00 78 1000.6
20260508074005 74 328 1.7 2.6 0.00 0.00 0.00 78 1000.6
20260508072807 74 48 0.0 1.7 0.00 0.00 0.00 77 1000.9
20260508071605 75 45 0.9 2.6 0.00 0.00 0.00 75 1001.1
20260508070404 75 356 1.7 4.3 0.00 0.00 0.00 77 1001.1
20260508065205 75 356 0.9 1.7 0.00 0.00 0.00 77 1001.7
20260508064004 73 298 1.7 4.3 0.00 0.00 0.00 79 1001.6
20260508062804 74 39 0.0 0.0 0.00 0.00 0.00 76 1001.8
20260508061604 74 24 0.9 1.7 0.00 0.00 0.00 77 1001.8
20260508060405 73 43 1.7 4.3 0.00 0.00 0.00 78 1001.9
20260508055204 73 21 0.0 1.7 0.00 0.00 0.00 78 1002.3
20260508054005 73 11 4.3 5.2 0.00 0.00 0.00 78 1002.1
20260508052803 73 77 7.8 10.4 0.00 0.00 0.00 77 1002.3
20260508051605 72 10 0.9 1.7 0.00 0.00 0.00 80 1002.7
20260508050403 74 81 0.9 1.7 0.00 0.00 0.00 78 1003.0
20260508045204 72 298 1.7 4.3 0.00 0.00 0.00 83 1003.1
20260508044004 71 97 0.0 1.7 0.00 0.00 0.00 82 1003.3
20260508042803 71 83 2.6 4.3 0.00 0.00 0.00 83 1003.6
20260508041604 72 354 0.0 0.9 0.00 0.00 0.00 82 1003.7
20260508040405 72 26 0.9 1.7 0.00 0.00 0.00 82 1003.9
20260508035204 73 31 1.7 2.6 0.00 0.00 0.00 81 1004.0
20260508034007 72 16 0.9 2.6 0.00 0.00 0.00 83 1004.2
20260508032805 72 29 2.6 7.0 0.00 0.00 0.00 84 1004.7
20260508031604 71 47 5.2 7.8 0.00 0.00 0.00 85 1005.0
20260508030405 71 77 2.6 4.3 0.00 0.00 0.00 84 1005.3
20260508025204 71 22 2.6 5.2 0.00 0.00 0.00 83 1005.4
20260508024004 71 86 4.3 6.1 0.00 0.00 0.00 83 1005.4
20260508022807 71 60 1.7 4.3 0.00 0.00 0.00 82 1005.7
20260508021605 71 19 2.6 5.2 0.00 0.00 0.00 82 1005.6
20260508020404 71 36 1.7 2.6 0.00 0.00 0.00 83 1005.7
20260508015205 70 85 1.7 4.3 0.00 0.00 0.00 85 1005.8
20260508014004 71 39 4.3 6.1 0.00 0.00 0.00 82 1005.8
20260508012805 70 109 1.7 2.6 0.00 0.00 0.00 81 1005.9
20260508011603 69 40 4.3 5.2 0.00 0.00 0.00 82 1005.8
20260508010405 69 22 0.9 2.6 0.00 0.00 0.00 82 1005.9
20260508005208 69 286 1.7 1.7 0.00 0.00 0.00 83 1006.4
20260508004004 68 286 0.9 2.6 0.00 0.00 0.00 82 1006.5
20260508002804 67 285 1.7 2.6 0.00 0.00 0.00 84 1006.7
20260508001605 67 285 0.9 2.6 0.00 0.00 0.00 84 1007.2
20260508000407 67 285 0.0 0.0 0.00 0.00 0.00 86 1007.4
20260507235204 67 282 0.9 2.6 0.00 0.00 0.00 85 1007.3
20260507234008 65 252 0.0 0.9 0.00 0.00 0.00 86 1007.3
20260507232806 64 245 1.7 2.6 0.00 0.00 0.00 89 1007.2
20260507231606 63 259 0.9 1.7 0.00 0.00 0.00 92 1007.4
20260507230406 62 217 0.9 1.7 0.00 0.00 0.00 96 1007.4
20260507225206 61 265 0.0 0.9 0.00 0.00 0.00 96 1007.2
20260507224006 62 264 0.0 0.0 0.00 0.00 0.00 96 1007.1
20260507222809 61 220 1.7 1.7 0.00 0.00 0.00 96 1007.3
20260507221606 61 272 0.0 0.0 0.00 0.00 0.00 98 1007.4
20260507220405 61 273 1.7 1.7 0.00 0.00 0.00 98 1007.3
20260507215206 61 267 0.9 1.7 0.00 0.00 0.00 96 1007.6
20260507214006 61 260 0.0 0.9 0.00 0.00 0.00 95 1007.6
20260507212806 61 218 0.9 0.9 0.00 0.00 0.00 94 1007.6
20260507211605 61 222 0.9 1.7 0.00 0.00 0.00 95 1007.6
20260507210405 60 219 0.9 1.7 0.00 0.00 0.00 98 1007.2
20260507205205 60 284 2.6 4.3 0.00 0.00 0.00 99 1007.3
20260507204006 60 229 1.7 1.7 0.00 0.00 0.00 99 1007.3
20260507202807 60 257 0.9 1.7 0.00 0.00 0.00 99 1007.3
20260507201605 59 257 0.0 0.0 0.00 0.00 0.00 99 1007.3
20260507200405 60 257 0.9 1.7 0.00 0.00 0.00 99 1007.2
20260507195207 60 258 0.0 0.0 0.00 0.00 0.00 99 1007.3
20260507194006 59 258 0.9 0.9 0.00 0.00 0.00 99 1007.2
20260507192809 60 258 0.0 0.0 0.00 0.00 0.00 99 1007.4
20260507191605 60 258 0.9 1.7 0.00 0.00 0.00 99 1007.2
20260507190405 59 258 0.9 0.9 0.00 0.00 0.00 99 1007.2
20260507185207 60 258 0.9 1.7 0.00 0.00 0.00 99 1007.2
20260507184005 60 258 1.7 1.7 0.00 0.00 0.00 99 1007.2
20260507182806 60 258 0.0 0.0 0.00 0.00 0.00 99 1007.2
20260507181606 60 258 0.9 1.7 0.00 0.00 0.00 99 1007.3
20260507180405 60 192 0.9 1.7 0.00 0.00 0.00 99 1007.4
20260507175205 60 178 1.7 1.7 0.00 0.00 0.00 99 1007.4
20260507174005 60 263 1.7 1.7 0.00 0.00 0.00 99 1007.5
20260507172805 60 245 1.7 2.6 0.00 0.00 0.00 99 1007.6
20260507171606 60 242 0.9 1.7 0.00 0.00 0.00 99 1007.6
20260507170404 60 233 0.9 0.9 0.00 0.00 0.00 99 1007.6
20260507165205 60 193 0.0 1.7 0.00 0.00 0.00 99 1007.7
20260507164006 60 256 0.9 0.9 0.00 0.00 0.00 99 1007.8
20260507162807 61 256 0.0 0.9 0.00 0.00 0.00 99 1008.0
20260507161607 61 194 1.7 2.6 0.00 0.00 0.00 99 1008.0
20260507160404 61 156 1.7 1.7 0.00 0.00 0.00 99 1007.9
20260507155206 61 271 0.9 0.9 0.00 0.00 0.00 99 1008.2
20260507154007 62 209 0.9 0.9 0.00 0.00 0.00 99 1008.4
20260507152805 62 278 1.7 2.6 0.00 0.00 0.00 99 1008.5
20260507151604 62 179 1.7 1.7 0.00 0.00 0.00 99 1008.6
20260507150406 62 162 0.9 1.7 0.00 0.00 0.00 99 1008.8
20260507145205 62 258 0.9 0.9 0.00 0.00 0.00 99 1008.9
20260507144005 63 178 1.7 2.6 0.00 0.00 0.00 99 1008.9
20260507142807 63 226 4.3 4.3 0.00 0.00 0.00 99 1008.8
20260507141604 63 261 1.7 1.7 0.00 0.00 0.00 98 1008.9
20260507140404 64 250 0.9 0.9 0.00 0.00 0.00 97 1009.1
20260507135205 64 208 1.7 1.7 0.00 0.00 0.00 97 1009.2
20260507134006 64 309 0.9 1.7 0.00 0.00 0.00 97 1009.2
20260507132806 65 309 0.0 0.0 0.00 0.00 0.00 95 1009.1
20260507131605 65 309 0.9 1.7 0.00 0.00 0.00 96 1009.4
20260507130405 65 258 1.7 2.6 0.00 0.00 0.00 95 1009.2
20260507125206 65 229 0.9 1.7 0.00 0.00 0.00 94 1009.4
20260507124005 65 230 0.9 1.7 0.00 0.00 0.00 94 1009.3
20260507122805 66 290 0.9 1.7 0.00 0.00 0.00 93 1009.3
20260507121605 66 224 1.7 1.7 0.00 0.00 0.00 93 1009.2
20260507120405 66 306 0.0 0.9 0.00 0.00 0.00 93 1009.5
20260507115205 67 306 0.9 1.7 0.00 0.00 0.00 92 1009.3
20260507114006 67 175 0.9 1.7 0.00 0.00 0.00 92 1009.3
20260507112805 67 163 1.7 1.7 0.00 0.00 0.00 90 1009.3
20260507111603 67 227 1.7 2.6 0.00 0.00 0.00 90 1009.1
20260507110407 68 299 1.7 1.7 0.00 0.00 0.00 89 1009.0
20260507105204 68 294 0.9 1.7 0.00 0.00 0.00 89 1008.9
20260507104004 68 226 1.7 2.6 0.00 0.00 0.00 88 1009.1
20260507102806 69 279 1.7 1.7 0.00 0.00 0.00 88 1008.8
20260507101604 69 282 0.9 1.7 0.00 0.00 0.00 87 1008.8
20260507100404 69 225 1.7 1.7 0.00 0.00 0.00 86 1008.7
20260507095204 71 275 0.0 1.7 0.00 0.00 0.00 85 1008.5
20260507094004 71 247 0.9 1.7 0.00 0.00 0.00 84 1008.4
20260507092804 72 318 1.7 1.7 0.00 0.00 0.00 82 1008.3
20260507091608 73 323 0.0 0.0 0.00 0.00 0.00 78 1008.1
20260507090406 74 323 0.0 0.0 0.00 0.00 0.00 77 1007.8
20260507085203 74 349 1.7 2.6 0.00 0.00 0.00 77 1007.8
20260507084005 75 348 1.7 2.6 0.00 0.00 0.00 76 1007.7
20260507082803 75 37 0.9 1.7 0.00 0.00 0.00 74 1007.5
20260507081603 75 19 0.9 2.6 0.00 0.00 0.00 74 1007.7